Regional Weather Roundup
Issued by NWS

Home | Current Version | Previous Version | Graphics & Text | Print | Product List | Glossary On
Versions: 1 2 3 4 5 6 7 8 9 10 11 12 13 14 15 16 17 18 19 20 21 22 23 24 25 26 27
000
ASUS45 KPSR 181110
RWRAZ

ARIZONA HOURLY REGIONAL WEATHER ROUNDUP
NATIONAL WEATHER SERVICE PHOENIX AZ
400 AM MST WED JAN 18 2017

NOTE: FAIR INDICATES FEW OR NO CLOUDS BELOW 12,000 FEET WITH NO
SIGNIFICANT WEATHER AND/OR OBSTRUCTIONS TO VISIBILITY.

AZZ001>003-036-181200-
NORTHWEST ARIZONA

CITY           SKY/WX    TMP DP  RH WIND       PRES   REMARKS
BULLHEAD CITY  CLEAR     45  30  57 CALM      30.16S
KINGMAN        CLEAR     30  26  85 CALM      30.14S
$$

AZZ004>008-015-016-018-181200-
NORTH CENTRAL ARIZONA

CITY           SKY/WX    TMP DP  RH WIND       PRES   REMARKS
GRAND CANYON   CLEAR     20  18  92 CALM      30.15F
WILLIAMS       CLEAR     25  21  86 S7        30.15R WCI  17
PRESCOTT       CLEAR     30  27  88 S5        30.14F WCI  25
FLAGSTAFF      CLEAR     20  18  92 CALM      30.14F
PAYSON         CLEAR     34  30  86 CALM      30.17F
PAGE           CLEAR     32  24  72 CALM      30.15F
$$

AZZ009>014-017-181200-
NORTHEAST ARIZONA

CITY           SKY/WX    TMP DP  RH WIND       PRES   REMARKS
WINSLOW        CLOUDY    34  32  92 CALM      30.16F
SAINT JOHNS    MOCLDY    31  31 100 CALM      30.14F
SHOW LOW       PTCLDY    27  25  93 S3        30.16F
$$

AZZ023-181200-
GREATER PHOENIX AREA

CITY           SKY/WX    TMP DP  RH WIND       PRES   REMARKS
PHOENIX        CLEAR     47  42  83 E6        30.10F
BUCKEYE          N/A     41  41 100 N7        30.12F
LUKE AFB       CLEAR     43  42  97 CALM      30.10F
DEER VALLEY    CLEAR     44  40  85 CALM      30.11S
SCOTTSDALE     CLEAR     45  40  82 CALM      30.12S
MESA-GATEWAY   CLEAR     41  39  93 E7        30.12S
$$

AZZ027-028-181200-
SOUTHWEST MARICOPA COUNTY AND PINAL COUNTY

CITY           SKY/WX    TMP DP  RH WIND       PRES   REMARKS
CASA GRANDE    LGT RAIN  43  40  89 CALM      30.12F FOG
$$

AZZ503-504-507>509-181200-
SOUTHEAST ARIZONA

CITY           SKY/WX    TMP DP  RH WIND       PRES   REMARKS
TUCSON         CLEAR     44  40  85 SE8       30.13F
DAVIS-MONTHAN  CLEAR     42  42  99 SE8       30.12F
NOGALES        CLEAR     34  32  92 CALM      30.13F
SIERRA VISTA   CLEAR     39  33  80 SW5       30.15S
DOUGLAS        CLEAR     33  32  96 S3        30.14F
SAFFORD        PTCLDY    42  39  89 N7        30.12F
$$

AZZ020-021-025-026-031-181200-
SOUTHWEST ARIZONA

CITY           SKY/WX    TMP DP  RH WIND       PRES   REMARKS
YUMA           CLEAR     46  33  60 N3        30.12F
$$

CAZ031-033-041-043-047-048-061-181200-
SOUTHERN CALIFORNIA

CITY           SKY/WX    TMP DP  RH WIND       PRES   REMARKS
DOWNTOWN L.A.  CLOUDY    52  43  71 CALM      30.15S
L.A. AIRPORT   PTCLDY    50  49  96 NE7       30.16R
SAN DIEGO      MOCLDY    53  45  74 CALM      30.17F
BURBANK        CLEAR     43  36  76 N3        30.14S
ONTARIO        MOCLDY    44  35  70 NE3       30.15S
RIVERSIDE      CLEAR     42  37  82 NE5       30.15F
PALM SPRINGS   CLEAR     47  35  63 N8        30.14F
EL CENTRO NAS  CLEAR     47  37  68 CALM      30.14S
IMPERIAL       CLEAR     43  36  76 W3        30.12F
BLYTHE         CLEAR     43  32  65 N7        30.14S
NEEDLES        CLEAR     43  27  53 CALM      30.14F
$$

NVZ020-UTZ003-181200-
SOUTHERN NEVADA-UTAH

CITY           SKY/WX    TMP DP  RH WIND       PRES   REMARKS
LAS VEGAS      PTCLDY    38  24  57 SW3       30.13F
SALT LAKE CITY PTCLDY    20  17  88 S3        30.19S
$$

NMZ009-TXZ055-181200-
NEW MEXICO-WEST TEXAS

CITY           SKY/WX    TMP DP  RH WIND       PRES   REMARKS
ALBUQUERQUE    MOCLDY    36  33  89 CALM      30.13S
EL PASO        PTCLDY    35  32  88 E5        30.13F WCI  31
$$


........................KEY........................
SKY/WX - SKY CONDITION/WEATHER
TMP    - TEMPERATURE IN FAHRENHEIT
DP     - DEW POINT IN FAHRENHEIT
RH     - RELATIVE HUMIDITY IN PERCENT
WIND   - DIRECTION AND SPEED IN MILES PER HOUR (MPH)
VRB    - VARIABLE WIND DIRECTION
PRES   - MEAN SEA LEVEL PRESSURE IN INCHES OF MERCURY
         F - FALLING PRESSURE   R - RISING PRESSURE
         S - STEADY PRESSURE
VSB    - VISIBILITY IN MILES
HX     - HEAT INDEX IN FAHRENHEIT
WCI    - WIND CHILL INDEX IN FAHRENHEIT
TC     - TEMPERATURE IN CELSIUS WHICH IS ALSO KNOWN AS
         TEMPERATURE IN CENTIGRADE
AFB    - AIR FORCE BASE
         LUKE AFB IS LUKE AIR FORCE BASE
         DAVIS-MONTHAN IS DAVIS-MONTHAN AIR FORCE BASE
NAS    - NAVAL AIR STATION
         EL CENTRO NAS IS EL CENTRO NAVAL AIR STATION
N/A    - NOT AVAILABLE





USA.gov is the U.S. government's official web portal to all federal, state and local government web resources and services.